Theta_e
313 315 315 316 316 317 317 316 315 315 314 313 314 314 314 312 313 314 314 316 314 313 316 314 314 315 314 320 319 315 324 332 334 338 338 341 342 342 344 344 346 346 347 348 347 347 346 345 344 343 343 342 342 342 340 339 336 332 328 329 332 334 335 336 337 337 337 337 336 334 333 333 332 330 330 332 333 333 332 333 333 334 334 333 333 333
313 316 318 318 318 318 320 320 317 314 313 313 313 314 313 313 313 314 314 316 314 314 317 314 313 314 315 322 321 319 329 334 333 336 337 340 341 340 341 341 343 345 346 347 347 346 345 344 343 342 343 342 341 341 340 338 335 331 329 330 332 334 335 335 335 336 334 336 336 333 332 332 330 329 331 332 332 332 332 332 332 333 334 333 333 333
315 317 319 316 314 314 317 320 318 315 315 315 314 314 315 315 315 315 318 320 315 314 319 315 312 314 318 324 323 319 322 327 332 335 335 338 339 339 339 339 340 342 344 345 344 344 344 343 343 342 343 342 341 341 339 337 335 332 330 330 331 333 335 334 334 333 332 334 335 334 333 331 330 330 332 332 332 332 331 331 331 332 333 333 333 333
316 318 316 312 312 313 314 316 316 314 315 317 315 314 316 316 314 316 321 322 317 315 319 318 317 325 329 327 323 317 314 318 327 333 334 336 337 337 337 338 338 339 341 341 342 343 343 342 342 342 342 342 341 340 337 336 335 334 331 329 331 334 335 334 334 332 332 333 334 334 333 330 330 332 333 333 333 332 331 330 330 331 333 333 332 333
316 316 313 311 313 315 314 314 315 313 315 320 319 314 314 315 313 315 319 321 323 322 321 321 325 335 335 324 319 319 320 322 325 327 331 333 334 335 335 335 336 336 338 340 341 342 342 342 342 342 342 341 341 338 337 336 336 334 331 330 332 333 335 335 335 334 332 334 334 334 332 328 328 332 333 333 333 332 331 330 330 331 332 333 332 333
315 313 312 313 313 313 313 314 316 315 316 319 320 316 314 315 314 315 318 321 324 323 319 318 321 326 328 323 319 320 324 327 327 328 330 330 331 332 333 333 334 334 337 340 341 341 342 343 342 342 342 341 340 338 337 337 336 335 332 330 331 332 332 333 334 334 333 334 335 333 330 326 326 330 332 332 331 331 331 330 331 331 331 331 332 332
315 313 313 315 314 312 312 313 314 315 315 315 320 320 315 315 315 316 319 321 321 319 317 318 318 319 323 325 323 323 325 328 330 330 330 330 330 329 330 331 332 333 335 338 340 341 342 342 342 342 341 341 339 338 337 337 336 336 333 331 331 332 332 331 331 333 334 335 335 332 328 325 327 329 331 331 330 331 331 331 331 331 331 331 331 332
315 315 315 315 314 313 313 313 313 314 314 317 323 322 317 316 316 319 322 320 319 319 320 323 324 321 320 324 326 324 326 330 332 332 331 331 330 330 331 331 332 333 334 336 338 340 341 341 341 341 341 340 339 338 338 337 336 335 333 331 331 332 332 330 329 330 332 333 333 330 326 325 327 329 329 329 330 330 331 331 331 331 331 331 331 331
316 317 317 315 314 313 314 314 314 313 314 319 322 318 317 317 316 321 322 321 322 319 318 324 325 317 318 327 329 327 330 332 333 333 331 331 331 331 332 332 333 334 335 336 337 339 340 339 340 340 339 339 339 338 337 336 336 334 332 331 330 330 330 329 328 328 328 328 328 327 325 326 327 328 329 330 330 331 331 331 331 330 330 331 331 331
314 316 316 315 315 315 315 314 313 313 314 317 317 315 317 319 319 323 322 322 326 320 318 325 322 315 320 330 332 331 332 331 332 333 331 330 331 331 332 332 333 334 335 337 337 338 339 338 339 338 338 340 339 338 337 336 335 333 332 332 330 329 328 327 328 329 328 327 327 327 326 326 327 328 329 329 330 331 331 331 331 330 330 331 332 332
312 313 313 313 315 315 315 313 311 313 313 314 315 314 317 322 326 331 331 327 321 319 325 329 323 319 325 332 332 330 331 330 331 333 330 329 330 330 331 331 332 333 334 337 338 338 339 338 339 338 339 339 337 336 335 335 335 334 333 332 331 330 328 328 327 327 329 329 329 328 328 327 327 328 328 328 330 331 331 331 331 331 330 330 331 332
312 312 313 314 314 313 314 313 311 311 312 314 318 316 316 322 324 328 331 325 317 321 331 327 322 324 329 332 330 328 330 330 331 332 329 329 328 328 329 329 330 331 332 334 336 337 338 339 339 340 339 336 332 333 332 331 333 335 334 333 332 330 329 329 327 325 328 331 332 331 331 330 329 329 330 330 331 331 331 331 331 330 330 330 331 331
315 314 314 314 314 313 314 314 312 311 312 314 319 320 318 319 318 320 324 323 321 323 323 319 322 330 330 328 328 327 328 328 328 329 328 328 327 327 327 328 328 330 331 332 334 336 337 338 339 340 338 333 329 330 331 330 331 333 334 335 334 332 331 330 329 328 327 330 333 334 333 333 333 333 332 331 332 332 332 332 331 330 330 331 331 331
317 316 314 313 314 314 314 315 315 315 314 313 318 321 320 319 317 317 319 319 320 319 316 316 321 330 330 327 327 326 326 326 326 327 327 327 327 328 327 328 327 327 329 330 331 333 334 335 337 337 337 334 331 329 328 329 330 330 332 333 334 333 333 331 331 332 330 331 334 334 333 334 333 332 332 332 333 332 331 331 331 330 330 331 331 330
317 317 318 315 313 314 314 315 317 318 315 313 316 318 319 324 323 320 321 320 319 318 320 320 319 326 332 329 326 326 325 326 327 327 327 327 327 328 327 328 328 327 327 328 328 330 331 332 332 333 333 333 332 330 328 329 330 330 331 331 332 332 333 333 333 333 332 333 333 332 331 330 329 330 332 333 333 331 330 327 328 329 329 330 331 330
314 318 323 317 312 313 315 314 315 316 316 313 313 315 316 323 326 322 322 324 325 322 321 324 323 323 328 327 324 326 326 326 327 327 327 327 326 326 326 326 326 326 326 326 326 327 328 329 328 329 329 329 330 330 329 329 329 330 330 329 329 329 330 332 333 333 333 333 331 328 327 326 327 329 332 333 332 331 329 327 327 328 328 329 329 329
314 318 323 316 312 314 314 315 314 314 318 316 314 316 316 317 321 321 317 319 323 320 315 321 328 326 326 328 326 326 327 327 327 327 327 326 325 324 324 324 324 324 324 325 325 325 326 327 326 326 327 327 327 328 328 329 329 329 328 328 329 328 329 331 332 333 332 331 328 326 325 326 327 330 331 332 333 332 330 328 327 327 327 328 329 327
318 319 322 316 313 315 312 313 315 312 317 319 315 316 315 312 318 323 323 322 322 319 315 322 331 329 328 330 326 326 329 328 327 327 326 325 324 323 322 323 323 324 325 325 325 326 326 326 326 326 327 327 327 327 327 328 328 328 328 328 329 328 328 329 331 331 330 328 325 325 326 327 329 330 330 332 333 332 330 328 327 327 326 327 328 328
316 317 323 319 314 315 313 314 316 312 313 316 316 315 315 316 319 319 320 321 319 318 317 321 326 328 329 329 327 329 330 328 327 325 324 324 323 322 320 320 322 323 324 324 324 325 325 326 326 327 327 327 327 327 327 327 328 328 328 328 328 328 328 329 329 329 329 328 326 325 327 329 331 332 332 332 332 332 330 328 327 327 325 326 327 328
317 316 322 321 315 314 315 317 320 317 313 314 314 313 315 323 325 318 317 319 319 320 319 320 325 329 328 326 327 330 328 327 327 324 323 322 320 319 318 317 319 320 321 322 323 324 324 325 325 326 326 326 326 326 327 327 327 328 328 328 328 329 329 329 328 328 329 329 329 328 328 330 331 332 332 332 332 332 330 329 328 326 325 327 327 326
315 313 320 325 319 316 317 318 320 320 316 314 316 314 314 318 319 317 318 317 318 324 325 325 329 329 325 324 326 329 327 325 324 323 321 320 317 316 315 315 316 318 319 320 321 322 323 324 324 325 325 325 325 326 326 327 327 327 327 327 327 328 328 329 329 329 329 329 329 330 329 329 329 330 332 332 331 332 331 329 327 325 327 329 327 326
314 316 322 325 318 316 320 319 316 318 317 316 319 319 316 317 318 318 319 317 318 323 323 327 333 327 323 324 325 326 325 322 322 321 319 318 315 314 313 313 314 316 317 318 319 320 321 322 323 324 324 324 325 325 325 326 326 326 326 326 327 327 327 328 328 329 330 329 329 329 328 329 330 330 331 331 331 331 331 329 326 326 329 328 326 327
321 321 319 317 314 315 318 318 317 319 321 321 323 323 321 320 322 322 322 322 321 319 318 327 334 326 322 324 323 321 321 320 319 319 317 315 313 312 311 312 313 314 316 317 318 319 319 320 321 322 322 323 323 323 324 324 324 324 325 325 326 326 326 327 328 329 329 330 330 330 329 330 331 331 331 331 331 331 330 329 327 327 329 326 323 326
322 321 317 315 318 318 318 320 320 321 325 327 327 327 324 322 325 327 328 330 327 322 322 330 332 324 322 322 320 319 318 316 315 315 314 312 311 311 310 311 312 313 313 314 316 317 318 319 320 320 321 321 321 321 322 322 322 322 323 323 324 325 326 327 327 328 328 329 330 331 331 330 330 331 331 330 331 330 330 329 327 327 328 324 323 325
318 320 321 318 317 316 316 320 322 323 327 328 328 327 324 322 324 323 324 330 328 322 324 331 330 324 322 320 318 317 315 313 313 312 311 310 310 309 309 310 311 311 312 313 314 315 317 318 318 318 318 319 319 320 321 321 321 321 322 322 322 323 324 325 326 326 327 328 329 330 331 331 331 330 330 330 330 330 329 328 328 328 326 323 324 324
321 322 325 323 320 319 322 326 327 326 326 326 326 327 326 325 323 319 322 329 327 320 323 330 327 322 320 318 317 316 313 312 311 310 309 309 308 308 308 308 309 309 311 312 312 313 315 315 316 316 317 317 317 318 319 320 321 321 321 321 322 322 322 323 324 325 326 326 327 328 329 331 331 330 330 330 330 330 329 328 328 328 325 324 324 323
328 323 323 326 324 324 328 328 325 326 330 330 326 327 328 325 324 325 328 327 324 324 326 327 323 321 321 318 316 314 312 310 310 309 308 308 308 308 307 307 308 308 310 310 311 313 314 314 315 316 316 317 317 318 318 319 320 321 321 322 322 322 323 323 323 324 326 326 326 327 328 330 330 329 329 329 330 330 329 329 328 325 324 325 324 323
334 326 321 323 321 321 323 322 321 323 328 327 325 325 324 323 328 334 331 322 321 326 328 323 321 322 321 317 314 312 310 309 308 308 307 307 306 307 307 307 307 309 310 310 310 311 313 314 315 315 316 316 317 318 319 319 320 320 321 322 322 322 323 324 324 324 325 326 326 326 327 329 330 329 329 329 330 330 329 329 327 324 324 325 324 324
333 327 320 321 319 318 319 319 319 320 319 317 319 320 319 320 326 329 324 318 320 326 328 323 321 320 317 314 312 310 308 308 307 306 306 306 306 306 306 306 306 307 309 310 309 310 312 313 314 314 315 316 317 318 319 319 319 319 321 322 321 321 322 324 324 324 325 325 325 326 327 328 329 329 329 329 329 329 328 328 327 325 325 324 324 325
326 325 319 319 320 318 318 318 318 319 318 316 316 316 316 316 318 319 318 318 320 324 325 321 317 314 312 310 309 308 307 306 305 305 305 305 305 306 305 305 304 305 306 307 307 309 312 314 314 314 314 315 316 317 318 318 318 318 320 320 320 320 321 322 322 322 324 325 325 326 326 327 329 329 329 329 329 328 327 326 326 326 325 324 324 324
322 322 318 320 321 318 316 316 316 317 318 317 316 315 315 316 316 317 318 318 319 319 317 315 314 311 308 307 307 306 306 305 304 304 304 304 304 304 304 304 303 304 304 305 307 311 314 314 313 313 313 314 315 316 317 317 317 317 318 318 318 319 319 321 321 322 324 325 325 326 326 327 328 328 329 329 328 328 327 325 326 326 324 324 324 324
325 322 319 322 324 319 316 315 316 316 317 318 317 315 315 317 316 315 315 316 317 316 314 315 315 311 307 306 306 305 305 305 304 303 303 303 303 303 303 303 303 303 304 305 307 311 312 312 311 312 312 313 315 315 316 316 316 316 316 316 318 319 319 320 321 322 323 323 323 325 325 326 326 326 328 329 327 327 327 325 325 324 322 322 323 323
324 322 321 324 325 320 316 317 319 319 320 320 316 313 314 315 315 314 313 313 314 314 315 316 314 309 306 306 305 304 304 304 303 303 303 302 302 302 302 302 303 303 304 305 306 308 309 309 310 311 311 312 313 314 315 315 315 315 315 317 319 320 320 321 321 322 323 323 323 324 324 325 326 326 327 328 327 327 326 325 324 324 322 322 322 322
319 321 323 324 324 320 316 318 321 321 321 318 313 311 313 313 313 312 311 310 311 312 311 310 308 306 305 305 304 304 303 302 302 302 302 302 302 302 302 303 303 304 304 305 305 306 307 308 309 309 310 312 313 314 314 314 314 315 316 317 319 320 320 321 321 322 323 323 323 324 324 325 325 326 327 328 327 326 326 325 324 323 323 323 322 322
320 321 322 321 321 319 317 319 323 323 318 314 311 311 311 310 309 310 309 308 308 308 307 307 306 305 304 303 303 302 301 301 301 301 301 301 301 302 302 303 304 304 304 305 306 306 307 308 308 309 310 311 312 313 314 313 314 315 316 317 318 319 320 320 321 322 323 323 323 323 323 324 325 325 326 326 326 325 325 324 323 323 323 323 323 323
322 322 320 318 318 317 318 320 321 318 312 310 311 311 311 311 310 310 310 308 307 306 306 306 305 303 303 302 301 301 300 300 300 300 300 300 301 302 302 303 303 304 304 305 305 305 306 306 307 308 308 309 311 312 313 313 313 314 316 317 318 319 320 320 321 321 322 323 322 322 322 323 323 323 324 325 326 325 324 323 322 322 323 323 323 323
323 322 319 318 316 315 317 317 315 314 313 312 311 309 309 309 310 311 311 309 307 306 305 304 303 303 302 301 301 300 300 301 301 300 299 299 300 301 301 302 303 303 303 304 304 304 304 305 306 307 307 308 310 310 311 312 313 314 315 317 317 318 319 319 319 320 320 321 321 321 321 322 322 321 321 322 322 322 322 322 322 322 322 322 322 321
321 322 321 320 316 314 316 315 313 315 316 313 310 308 307 307 307 309 310 310 307 306 305 303 303 302 302 301 301 300 301 304 304 301 299 299 299 300 300 301 302 302 302 303 303 303 304 304 305 306 307 308 309 309 310 311 312 313 314 315 316 317 318 318 318 318 319 320 319 319 320 322 321 320 320 321 320 320 321 320 320 321 321 319 319 319
316 318 320 320 316 314 317 317 315 316 314 311 308 306 306 306 306 308 312 312 308 305 305 303 303 302 302 301 301 301 304 308 306 301 299 299 299 299 300 300 301 301 302 302 303 303 303 303 303 304 306 307 307 307 309 309 311 312 313 313 314 316 316 316 317 317 318 319 318 318 319 321 322 320 320 321 320 320 319 318 319 320 320 318 319 319
318 319 320 319 317 315 316 315 314 313 310 308 306 305 305 306 307 311 317 315 308 305 305 304 303 303 302 302 303 303 304 307 304 300 299 299 299 299 299 300 300 301 301 301 301 302 302 302 302 303 304 305 305 306 307 308 310 311 311 311 313 314 313 313 314 315 317 318 318 318 317 319 320 320 321 321 320 320 319 319 319 319 318 317 318 319
316 316 316 316 316 314 314 312 312 311 308 306 305 304 305 308 311 314 316 312 307 305 305 304 303 303 303 303 304 302 302 302 302 300 299 299 299 299 299 299 300 300 300 300 300 300 301 301 301 301 301 301 302 304 305 306 308 309 309 310 311 310 309 310 312 314 315 316 317 317 317 317 316 317 318 319 318 318 318 317 317 316 315 315 315 316
314 313 313 313 313 311 311 311 312 311 307 304 304 304 306 310 314 313 310 307 306 306 305 304 304 304 303 303 303 301 300 300 300 299 299 299 299 299 299 299 299 299 299 300 300 300 300 300 300 300 300 300 300 301 302 304 305 305 306 308 307 306 307 309 311 312 314 315 316 316 317 316 316 315 316 316 316 316 315 315 315 315 315 315 314 315
310 311 312 310 308 309 310 311 313 313 306 302 304 307 308 310 311 308 305 305 305 305 304 304 304 304 304 302 301 300 299 299 299 299 299 299 299 299 300 299 299 299 300 300 300 300 300 300 300 300 300 300 300 300 300 301 302 302 303 303 302 301 304 307 309 311 312 313 314 314 315 316 316 316 316 316 316 316 315 315 315 314 314 315 315 315
306 308 310 307 305 310 313 311 309 307 303 302 305 307 307 307 307 305 304 303 303 303 304 303 302 302 302 301 299 299 299 299 299 299 299 299 299 299 300 300 300 300 300 300 300 300 301 301 300 300 300 300 300 300 300 300 300 300 300 300 299 300 301 303 306 309 310 310 311 312 312 313 315 315 316 316 316 315 315 314 314 314 313 314 314 315
305 305 306 304 303 306 308 305 303 302 302 304 305 306 306 306 305 305 305 303 302 302 303 302 301 300 301 300 299 299 299 298 298 298 298 299 299 299 299 299 299 300 300 300 300 300 301 300 300 300 300 300 300 300 300 300 300 300 300 300 299 300 300 300 302 305 306 307 308 309 309 310 312 313 314 315 316 316 315 315 314 313 313 314 314 314
303 303 304 303 302 303 303 302 302 303 303 304 304 304 305 305 304 305 304 303 302 302 302 302 301 300 300 300 300 299 299 299 299 299 299 299 299 299 299 299 299 299 299 299 300 300 300 300 299 299 299 299 299 299 299 300 300 300 300 300 300 300 300 300 300 301 302 303 304 306 306 307 308 310 311 312 313 314 314 314 313 313 313 314 314 313
303 304 304 304 304 304 304 302 301 302 302 302 303 304 304 303 303 304 304 303 302 302 302 302 301 301 300 300 300 299 299 299 299 299 299 299 299 299 299 299 299 299 299 299 299 299 299 299 299 299 299 298 298 298 299 299 299 299 300 300 300 301 301 301 301 300 300 300 301 302 303 303 303 305 307 309 310 310 311 311 311 311 311 311 310 311
304 304 304 303 303 303 303 302 301 301 302 302 302 302 302 302 303 302 302 302 301 301 301 301 300 300 300 300 300 299 299 299 299 299 299 299 299 299 299 299 299 299 299 299 299 299 300 300 299 299 298 298 298 298 298 299 299 300 300 299 300 300 301 302 302 302 301 300 300 300 300 300 299 300 301 304 306 308 308 308 309 310 310 309 308 308
304 304 303 303 302 302 302 301 301 301 300 301 301 301 301 301 301 301 301 301 300 300 300 300 300 300 299 299 299 299 299 299 299 299 299 299 299 299 299 299 299 299 300 300 300 300 300 299 299 299 299 299 298 298 299 299 299 300 300 300 299 299 300 300 301 301 301 301 301 300 299 299 298 298 298 298 301 303 305 306 307 308 309 309 308 308
304 303 302 302 303 303 302 302 302 302 301 300 300 300 300 300 301 300 300 300 300 300 299 299 299 299 299 299 299 299 299 299 299 299 299 299 299 299 300 299 300 299 300 300 300 300 300 299 299 299 299 299 299 299 299 299 299 299 299 299 299 299 299 299 299 300 300 300 301 301 300 300 299 298 297 297 297 298 300 303 304 306 307 307 308 307
303 303 303 304 303 303 302 302 301 301 300 300 300 300 300 300 300 300 300 300 300 300 300 300 300 300 300 299 299 299 299 299 299 299 299 299 299 300 299 299 299 299 299 299 299 299 299 299 299 299 299 299 299 299 299 299 299 299 299 299 299 299 299 300 299 299 299 299 299 299 300 300 299 298 298 298 297 296 296 298 300 302 304 305 306 306
Wind_Speed
6 4 2 5 6 6 6 7 8 6 5 4 2 1 2 3 4 5 5 6 3 3 8 6 8 10 10 9 5 3 7 15 13 11 15 20 25 28 28 26 28 30 31 29 27 25 23 21 19 18 18 17 16 15 13 11 10 10 10 12 14 13 11 11 15 18 23 27 26 24 26 25 24 24 25 25 23 22 21 20 20 20 20 21 20 20
4 5 5 7 8 7 6 6 7 5 4 2 1 1 4 2 4 7 4 6 2 3 7 3 5 9 9 7 6 4 4 9 15 17 18 23 26 26 25 25 26 28 29 29 27 26 23 20 20 19 19 19 18 17 16 13 10 9 9 11 12 11 10 10 12 16 19 23 25 25 24 24 24 25 25 24 24 22 21 21 21 20 20 21 21 20
2 4 7 8 7 5 4 4 7 5 5 3 2 1 2 3 4 7 5 5 1 4 6 2 6 7 6 5 6 5 3 7 16 24 25 29 28 26 26 26 25 25 26 26 27 27 24 22 21 21 21 20 19 18 17 14 10 9 9 10 10 9 9 10 13 15 17 20 24 25 24 23 25 26 25 24 24 23 22 22 21 20 20 21 21 20
2 5 8 6 6 6 3 3 7 5 3 3 3 3 2 4 1 3 5 6 4 1 3 3 4 4 5 5 6 8 11 9 6 16 19 22 24 24 21 17 16 18 21 24 27 28 25 23 23 23 22 21 20 19 18 13 8 9 8 8 8 8 9 11 13 15 16 20 25 25 24 23 24 25 26 26 25 24 23 22 20 20 20 21 21 20
5 6 4 7 7 7 4 3 6 5 1 2 4 5 3 3 4 5 4 7 6 4 2 6 4 4 4 6 5 8 14 16 11 4 6 9 14 13 7 5 7 11 18 23 26 27 26 25 24 23 22 21 20 20 17 10 6 8 7 7 7 8 9 11 13 16 18 22 24 25 25 24 25 26 26 27 26 24 22 21 20 20 21 21 20 20
8 6 4 7 5 6 5 4 4 6 3 3 4 8 7 6 6 4 4 5 4 5 4 6 4 4 4 6 5 6 9 13 16 12 9 9 7 6 2 4 6 9 15 22 24 25 25 24 23 23 22 21 19 19 15 10 8 7 7 9 10 11 11 12 15 18 21 23 24 25 26 25 25 27 27 25 24 22 20 20 20 20 20 20 20 20
4 5 6 7 5 5 5 5 4 7 5 2 5 8 9 8 5 3 2 2 2 1 3 4 5 2 5 6 6 6 6 8 13 13 15 16 8 2 5 7 8 9 14 19 21 23 23 22 22 23 22 20 19 19 15 12 10 8 10 13 14 14 15 15 17 19 23 25 26 26 25 25 25 25 25 23 21 20 19 18 19 19 19 19 19 19
3 6 6 6 6 5 5 4 5 8 7 3 6 7 8 7 6 5 3 3 2 3 4 4 4 3 3 4 5 6 4 7 13 11 13 18 16 11 11 10 9 10 12 17 21 22 22 22 22 22 21 20 21 20 16 13 11 10 13 16 16 17 17 18 18 20 23 27 28 27 25 26 25 24 23 22 20 19 18 18 18 18 18 18 18 17
3 6 7 7 5 4 5 5 7 9 6 7 7 6 7 7 7 6 5 3 1 1 3 6 2 4 2 5 5 6 4 8 12 11 11 15 18 17 16 13 10 11 12 15 17 19 20 20 20 20 19 21 22 20 17 15 12 13 16 17 17 17 17 18 19 21 24 27 28 27 27 27 26 25 23 22 20 18 18 18 19 18 18 18 18 17
2 6 8 7 5 5 8 6 10 12 6 8 5 5 4 3 4 4 5 4 3 4 2 7 1 3 2 5 5 6 4 6 7 7 8 12 18 19 19 18 13 11 13 13 13 15 16 16 16 16 18 22 23 21 19 15 13 13 16 17 17 17 17 17 19 22 25 27 29 29 28 27 27 26 25 23 20 18 18 19 19 20 19 19 18 17
3 3 3 5 6 8 9 6 11 15 9 3 3 4 4 5 4 4 3 4 4 1 5 7 1 5 1 4 3 3 3 4 4 5 7 11 17 19 19 18 15 12 11 11 11 11 12 12 12 13 18 22 19 15 13 11 12 13 15 16 17 17 17 18 20 22 26 28 30 30 30 28 27 26 25 23 21 19 18 19 19 20 20 20 19 18
4 1 1 5 11 9 5 3 8 12 7 4 3 4 3 2 4 4 4 4 4 2 6 6 2 7 2 3 2 3 3 5 6 6 6 9 13 16 17 16 15 13 10 9 9 9 10 11 11 13 20 18 11 8 7 8 12 15 17 19 18 17 18 21 23 23 26 29 30 31 31 29 27 26 25 23 20 18 17 18 19 19 20 21 21 19
3 3 3 4 8 8 5 1 2 4 3 4 4 5 4 1 2 1 3 1 2 3 4 4 2 4 1 1 2 3 4 7 8 7 7 9 12 15 16 16 15 13 10 9 7 7 8 10 11 14 17 13 8 9 11 11 12 14 17 20 21 21 21 23 24 24 26 29 30 30 30 29 27 25 24 22 19 16 16 16 18 20 21 22 23 22
3 5 4 2 5 6 8 4 1 3 4 6 5 5 5 3 3 1 2 0 2 3 4 4 1 2 1 1 1 2 4 5 8 9 7 10 13 14 16 16 16 14 11 9 6 4 4 6 7 9 12 10 8 8 9 13 15 15 16 20 22 23 23 25 27 26 25 27 27 26 26 25 23 21 21 21 19 17 16 16 18 20 21 22 22 22
2 4 4 3 3 5 8 7 7 7 6 5 4 6 5 5 4 3 3 3 3 2 2 2 1 2 2 1 1 3 4 5 9 9 8 11 13 15 17 17 17 17 14 11 8 5 3 1 2 4 7 9 10 10 9 10 14 15 15 17 20 21 22 24 27 25 23 23 23 20 18 17 18 20 21 21 20 20 19 16 16 20 22 21 21 20
4 4 7 5 3 4 6 6 6 8 5 2 2 6 3 5 5 2 3 5 5 2 2 2 1 0 2 3 3 4 4 6 8 9 10 13 14 16 18 18 18 17 16 14 13 10 7 4 3 4 6 8 9 10 10 10 12 15 15 16 17 18 18 19 21 23 22 20 17 14 14 14 18 21 20 20 21 21 19 16 16 19 22 22 21 20
4 4 7 3 3 4 7 7 6 7 5 1 2 4 3 4 7 5 2 1 3 4 0 0 3 1 1 2 2 4 6 7 8 8 11 12 14 17 17 17 18 17 16 15 15 14 12 9 7 6 6 8 10 12 12 12 13 15 16 17 18 19 19 18 19 19 20 18 13 13 16 18 20 21 19 20 22 21 18 15 16 19 21 22 21 20
4 3 6 1 3 7 6 6 2 3 6 4 3 5 2 3 5 4 2 2 4 4 2 1 3 3 2 2 3 5 7 7 7 7 9 10 12 14 14 15 16 16 15 14 13 13 12 11 10 8 8 8 9 11 11 12 13 14 16 18 18 19 19 20 21 18 18 17 14 13 15 20 23 22 20 21 22 20 17 17 19 21 21 20 20 20
3 0 7 3 3 4 1 5 3 4 4 4 5 5 4 3 1 1 2 2 2 3 1 3 1 3 3 2 5 7 8 8 6 6 7 8 10 11 12 14 15 15 14 14 14 14 13 13 11 9 9 8 7 8 8 9 10 12 13 15 17 16 16 17 19 19 19 18 16 15 15 19 23 22 21 22 21 20 17 18 21 23 21 20 21 20
3 2 5 5 3 1 3 3 2 1 4 4 4 2 2 3 4 2 2 3 4 3 1 2 1 2 3 2 4 8 9 8 7 5 5 7 10 11 11 13 14 14 14 14 14 13 13 13 12 10 9 8 8 9 9 8 9 9 11 13 15 15 14 15 15 16 16 16 17 18 17 18 19 19 20 20 20 18 16 18 22 22 21 21 22 21
2 3 2 5 4 1 1 1 6 7 3 2 3 1 1 1 2 2 1 2 4 4 3 3 1 4 3 2 2 6 8 8 8 6 5 7 10 11 11 12 13 12 13 12 11 11 11 10 9 9 8 8 9 9 9 9 9 10 10 11 14 15 14 15 15 14 12 12 15 19 19 18 17 18 20 20 19 17 16 19 21 21 21 22 21 21
1 2 3 3 4 2 2 5 5 8 6 4 3 3 3 3 4 3 0 1 2 4 4 5 2 4 3 1 1 4 7 8 9 8 6 7 9 11 12 12 12 12 12 11 10 10 9 8 8 8 8 8 9 10 10 10 11 11 11 11 12 13 13 14 14 15 14 14 17 20 21 20 16 17 20 20 19 19 18 20 21 21 22 21 20 20
3 4 3 2 1 2 5 5 1 6 9 7 3 2 3 4 5 5 3 3 1 3 2 3 3 3 3 2 5 5 8 11 11 9 7 7 10 11 12 11 11 11 11 10 10 9 9 8 8 8 9 9 10 11 11 12 13 13 12 11 10 11 11 12 12 14 16 18 19 20 21 19 15 15 17 18 20 19 20 22 21 22 23 21 20 21
2 4 3 1 2 4 5 5 4 5 8 6 3 3 3 1 3 5 5 3 3 3 2 3 2 2 1 4 8 9 12 15 13 9 6 7 10 12 12 11 11 11 11 10 10 9 9 8 7 7 9 9 9 10 11 11 12 12 12 11 9 9 9 10 11 12 14 17 19 21 21 18 16 15 15 17 20 20 20 23 23 24 25 23 22 21
1 1 3 3 2 3 4 4 5 5 4 3 2 4 3 1 4 4 2 3 3 3 4 5 2 2 1 5 8 9 11 14 12 10 8 9 11 12 12 11 11 12 12 11 11 11 11 11 11 11 12 14 14 13 11 11 12 13 14 13 13 11 10 11 11 12 12 14 16 20 21 19 16 16 15 17 21 21 22 25 25 26 26 24 23 21
3 2 3 5 4 3 2 2 2 0 2 3 3 4 5 3 4 4 3 4 2 2 3 5 4 2 3 6 8 7 8 10 11 9 8 8 10 10 11 11 11 12 12 12 13 13 13 13 14 15 16 16 17 17 15 13 14 15 15 15 16 16 15 14 12 13 13 13 14 17 21 20 17 16 16 19 23 24 24 26 27 28 26 24 23 22
4 3 2 5 5 5 5 3 3 1 4 2 3 5 5 4 2 4 4 3 5 4 2 1 6 8 7 7 7 6 6 8 8 7 7 7 8 9 10 10 10 11 11 12 13 13 13 15 15 16 16 16 17 17 16 16 16 17 17 18 18 19 18 17 15 14 15 15 14 14 17 19 18 16 17 20 22 24 25 27 28 27 26 25 23 21
5 4 3 4 5 2 2 3 4 5 5 4 3 5 6 5 5 6 4 2 5 7 1 3 8 11 8 6 6 6 5 7 7 6 6 6 7 7 8 9 9 10 11 11 13 14 15 16 16 16 17 16 17 17 16 17 17 17 17 18 20 20 19 17 15 15 16 17 15 12 14 17 17 15 16 18 20 24 26 28 27 25 26 26 23 22
6 3 3 3 7 8 6 6 7 8 7 6 6 5 6 7 8 7 3 2 1 4 5 8 10 8 6 6 5 5 5 6 7 7 6 5 5 6 7 9 10 11 12 12 14 15 15 15 16 16 17 16 17 19 18 18 19 19 18 18 20 22 20 17 16 16 16 17 16 13 12 14 16 15 16 17 21 24 28 29 27 26 27 26 24 24
4 3 3 4 7 8 8 6 5 8 6 6 9 7 6 8 10 10 6 4 5 5 8 13 12 6 4 5 5 6 6 6 8 9 7 6 6 6 8 9 10 12 12 12 13 15 14 14 15 16 17 18 18 19 20 20 21 22 21 20 20 21 21 19 20 20 18 15 14 13 11 13 16 16 17 20 22 24 28 30 28 28 29 27 26 26
4 3 1 3 6 6 7 6 6 7 9 8 9 9 7 7 8 8 6 6 8 7 9 12 10 4 2 5 7 7 6 7 8 9 8 8 7 7 8 9 10 12 12 12 14 13 12 13 15 16 17 18 19 20 21 23 24 24 24 24 23 23 23 24 24 23 19 14 13 13 11 13 16 16 17 21 24 24 27 29 30 31 30 29 29 28
4 4 1 4 5 1 2 4 5 6 9 9 8 9 9 7 5 5 4 3 3 8 12 10 6 3 4 6 7 6 7 9 8 7 8 8 7 7 7 8 10 12 13 14 14 12 11 13 15 16 17 17 18 20 22 23 24 25 26 25 25 26 26 26 25 23 20 17 16 14 13 13 14 15 18 23 26 26 28 29 30 32 30 29 30 29
2 5 3 3 4 2 1 1 3 3 4 4 4 6 5 3 5 6 6 6 4 6 9 5 3 5 6 7 6 5 7 8 6 6 7 6 5 6 6 7 9 11 12 13 13 12 12 13 14 15 15 16 17 18 20 22 24 25 24 23 23 24 24 24 24 22 21 19 18 16 14 13 14 16 20 25 28 28 30 31 31 32 33 31 30 29
2 5 4 2 4 3 1 3 3 1 1 1 3 4 3 3 8 8 6 7 6 5 5 5 6 7 6 5 5 6 7 6 6 6 6 4 3 4 4 6 8 9 10 11 11 12 12 12 12 13 13 14 15 16 18 21 22 21 20 20 21 21 20 20 20 19 18 18 18 16 13 12 17 21 23 26 30 32 33 32 31 33 34 33 31 30
4 5 3 2 3 4 1 3 2 1 2 1 2 4 5 7 11 13 10 8 8 9 10 10 9 7 7 8 8 9 10 9 8 7 5 4 3 3 4 5 6 7 8 9 10 11 11 11 11 12 13 13 14 15 17 19 18 16 16 18 18 18 17 16 15 15 15 14 14 12 10 13 20 24 26 28 32 34 34 33 32 33 34 33 32 31
5 4 3 3 3 3 2 2 2 2 1 1 2 3 4 5 6 9 9 7 6 7 9 10 8 9 11 11 10 12 13 12 11 9 6 5 4 4 5 6 6 6 7 8 9 10 10 11 12 12 12 13 13 14 15 16 15 14 14 15 15 15 14 14 13 13 12 12 12 7 6 12 15 20 26 31 32 31 31 32 30 30 32 33 32 31
6 5 4 3 1 2 3 2 1 1 1 1 0 1 2 2 2 1 4 3 2 3 7 10 9 10 12 12 12 14 13 10 9 8 6 5 5 5 5 5 5 6 6 7 8 8 9 10 10 10 11 11 12 12 13 14 14 13 13 13 13 13 13 14 15 15 12 11 10 5 5 11 13 14 19 23 24 24 25 27 26 25 27 30 31 30
5 4 4 3 1 2 4 2 1 2 3 2 3 3 2 0 3 2 2 3 2 5 10 12 11 11 13 13 14 13 8 4 3 3 4 3 3 4 4 4 4 4 5 5 5 6 7 8 9 9 10 10 11 12 13 13 13 13 13 14 13 13 13 14 16 17 14 12 9 5 5 13 15 13 14 17 19 20 21 21 21 22 24 27 29 30
7 4 4 5 2 2 4 3 2 3 2 2 3 1 1 2 3 1 2 2 4 9 12 13 13 13 14 15 15 10 3 0 1 1 1 1 3 4 4 4 4 4 5 5 5 5 6 7 8 8 8 9 11 12 12 12 12 12 14 15 14 14 14 15 15 14 14 13 10 7 6 14 15 9 11 19 23 23 22 20 20 22 26 29 30 30
6 5 4 4 3 3 3 2 1 2 1 1 1 3 3 4 2 1 1 1 6 12 14 15 15 15 15 15 12 6 1 1 4 3 2 3 5 5 5 5 5 6 7 7 7 7 7 7 7 8 10 11 12 11 11 10 11 11 14 15 15 16 18 18 16 13 11 10 10 11 9 10 15 14 17 22 24 25 26 26 27 28 30 32 33 33
4 4 2 4 4 3 3 2 0 1 1 2 2 5 4 2 1 2 2 3 10 14 15 16 17 16 15 12 8 3 2 3 8 9 6 5 6 6 6 7 7 8 9 9 9 8 8 9 9 11 12 13 11 11 11 10 10 12 14 15 16 19 20 18 16 13 11 10 10 12 13 11 13 18 23 25 25 25 27 27 28 29 27 27 29 31
2 2 2 2 3 3 3 3 0 1 1 1 3 4 1 1 1 2 4 9 16 17 15 17 18 16 13 11 9 9 10 11 12 11 8 7 7 7 7 7 8 9 10 10 10 10 10 11 11 12 13 13 12 12 12 11 12 14 15 15 18 20 18 15 15 14 13 13 12 13 13 12 14 18 22 24 24 24 24 23 22 22 19 17 18 21
1 1 2 2 2 2 3 2 1 1 1 2 2 1 1 0 3 9 13 15 17 17 16 16 16 15 14 13 14 16 16 14 12 11 9 8 8 7 7 7 8 9 9 9 9 10 10 11 12 12 13 13 13 13 13 13 14 15 16 17 19 18 16 15 13 12 13 14 14 14 13 12 12 13 16 17 16 13 12 12 12 11 10 10 10 12
1 0 1 1 0 2 3 2 2 2 3 3 1 2 4 7 13 19 20 17 15 17 18 17 16 15 17 19 20 19 17 15 13 12 11 10 8 8 8 8 8 8 8 8 9 9 10 11 12 12 12 12 12 13 13 14 15 16 17 18 17 15 15 15 13 12 13 15 15 16 15 13 11 10 10 11 10 6 4 4 4 3 5 9 11 11
0 3 4 2 2 3 3 2 2 2 2 5 8 11 14 17 19 21 21 20 18 17 18 20 19 18 19 21 21 19 17 16 14 13 11 11 10 9 9 9 9 9 8 8 9 9 10 11 12 13 13 14 14 13 13 13 14 16 18 17 15 14 14 14 12 12 14 15 16 17 16 15 13 12 10 10 8 8 9 10 10 9 10 12 13 13
4 5 6 4 4 5 7 6 3 5 12 17 18 18 19 20 20 19 20 20 19 17 18 19 20 19 18 18 18 17 16 14 13 12 10 10 10 10 10 11 11 10 10 10 11 11 11 12 12 12 14 15 16 16 16 15 15 15 15 14 14 14 14 14 14 14 15 16 15 15 15 16 16 14 13 12 11 10 10 10 11 11 11 11 10 10
1 3 4 3 3 3 4 4 4 9 15 19 20 20 20 19 18 18 19 19 19 19 19 18 18 17 16 14 14 15 14 12 12 11 10 10 10 10 10 11 12 12 13 13 14 14 15 15 16 16 15 15 15 16 17 17 17 17 15 13 12 11 11 12 14 16 17 16 15 14 14 15 15 14 13 13 12 12 13 12 12 13 14 12 11 11
2 5 5 3 2 3 5 6 9 13 16 18 20 21 20 20 19 19 21 22 21 21 20 19 18 17 17 16 16 16 15 13 12 12 11 11 11 10 10 11 11 12 13 13 12 13 13 14 15 16 17 16 14 13 14 16 17 18 17 17 16 13 11 11 11 12 15 16 16 16 16 16 16 15 13 12 11 10 11 11 10 11 12 12 10 9
4 4 4 4 5 6 7 10 13 15 14 15 19 20 21 22 24 23 23 24 24 23 23 22 21 20 21 20 19 18 17 15 14 13 13 12 11 11 11 11 11 11 11 10 10 11 12 13 14 15 15 15 14 14 14 14 15 16 17 17 17 16 16 16 15 14 13 13 13 14 15 16 16 16 15 13 11 9 9 10 9 9 10 10 10 9
4 4 4 6 6 4 4 7 9 9 8 10 18 21 22 24 26 26 25 25 25 25 25 24 23 21 20 19 19 18 18 16 15 14 14 13 13 12 11 11 11 10 9 8 8 9 10 11 12 13 13 13 13 14 15 16 17 17 18 18 17 17 18 18 18 19 18 17 15 13 12 13 14 15 15 14 12 10 8 8 8 8 9 10 10 10
5 6 5 5 4 5 8 12 15 15 14 14 19 23 24 25 27 27 26 25 23 22 22 22 21 19 17 16 16 16 16 15 14 13 13 13 13 13 13 12 12 10 9 9 10 10 10 10 10 11 12 12 12 13 15 16 18 18 18 19 19 18 18 17 18 20 20 20 20 19 17 15 14 14 13 13 13 11 9 6 6 6 7 8 9 9
Wind_Direction
176 161 170 191 196 195 189 171 165 158 144 148 117 90 279 290 293 279 272 284 288 275 264 224 214 249 262 265 297 27 188 192 186 186 190 195 200 202 203 201 201 203 206 207 205 199 196 195 195 194 191 189 187 184 189 201 214 228 239 247 249 239 224 226 232 231 226 221 218 217 213 209 207 209 215 219 221 224 227 227 228 227 223 221 222 225
157 176 218 213 201 187 181 176 152 127 113 105 125 284 296 270 268 272 267 302 287 181 268 244 184 246 255 269 314 55 147 183 176 179 192 201 205 207 208 205 203 205 205 204 202 195 190 193 196 197 195 194 192 187 192 203 214 227 235 241 246 236 217 213 221 226 222 217 216 214 209 208 209 212 217 220 222 227 228 226 227 226 223 223 225 226
137 211 235 216 191 160 140 139 131 121 116 106 127 146 293 264 279 290 283 307 302 172 264 236 168 240 271 305 346 30 311 247 195 188 195 202 206 211 212 209 206 203 201 199 197 193 191 196 200 200 199 198 194 190 194 200 212 226 229 237 242 229 212 207 210 216 213 209 212 214 212 212 215 219 222 224 226 229 228 226 226 225 224 225 224 224
170 242 236 194 149 150 163 133 121 106 111 134 153 147 248 262 288 297 291 317 333 236 245 152 155 273 329 8 19 9 350 341 235 209 205 204 207 214 218 214 206 195 190 191 192 192 192 197 203 202 200 197 191 192 196 196 215 232 226 235 238 223 215 214 216 214 207 203 207 211 215 219 222 224 225 226 229 230 227 226 226 225 223 224 223 221
223 244 199 137 137 166 188 182 139 135 230 235 199 175 194 240 221 227 280 324 335 340 28 91 58 321 349 33 24 359 11 21 8 299 243 240 229 233 243 218 197 181 185 189 189 191 194 198 203 201 200 196 191 195 197 195 229 238 217 217 223 219 218 227 233 222 210 207 208 212 218 223 226 228 228 228 230 228 226 227 227 224 222 223 221 221
241 237 142 121 145 167 175 216 179 159 190 281 232 190 188 218 233 256 311 352 16 358 3 78 67 299 327 30 20 351 11 20 16 22 9 336 274 259 8 141 160 158 181 190 190 193 196 198 200 199 198 195 193 200 201 203 230 231 199 192 202 209 208 215 226 222 215 215 216 218 222 226 228 230 231 233 233 230 228 229 227 224 222 222 223 224
233 196 157 144 156 158 172 225 215 159 145 268 237 181 178 206 218 246 288 48 74 314 338 76 113 236 324 9 2 348 4 20 24 27 20 16 13 27 98 135 154 156 174 184 191 196 197 198 199 197 196 195 198 203 205 213 226 218 195 192 198 204 203 203 210 212 213 217 220 225 230 232 232 233 236 238 238 235 232 229 224 223 223 223 225 227
176 168 169 156 148 151 178 224 208 156 132 236 239 154 154 188 189 190 151 102 195 235 332 11 109 127 334 327 335 345 1 31 35 32 23 27 35 54 82 110 139 153 167 178 187 193 196 197 198 196 196 197 202 205 209 219 223 204 192 195 200 204 204 204 205 208 209 213 220 227 234 234 233 235 238 239 238 234 232 229 224 224 225 223 225 226
160 166 180 166 152 166 198 204 178 150 144 242 237 147 156 178 170 169 127 104 318 68 329 314 39 100 285 288 334 5 28 36 37 37 28 28 37 47 57 69 96 130 153 171 182 188 194 197 198 201 202 201 204 209 214 225 226 203 191 193 199 204 205 206 207 209 211 212 216 222 228 230 233 236 239 242 241 236 234 232 227 225 224 223 222 223
198 190 185 158 151 201 217 198 158 157 187 244 225 128 100 89 115 118 107 114 45 59 239 270 296 118 251 297 347 10 21 22 25 37 35 36 44 50 54 57 68 102 133 155 169 180 191 198 202 206 207 207 210 211 214 225 229 211 198 198 204 207 208 211 212 212 215 216 216 219 223 227 231 235 239 243 243 239 236 234 229 224 222 222 220 219
269 229 178 158 186 214 217 191 164 179 191 191 169 126 73 34 48 53 63 99 80 15 248 253 200 115 217 296 1 358 338 357 10 36 39 39 46 50 55 61 67 82 112 139 153 168 182 194 205 207 205 208 208 201 205 227 236 227 216 210 214 215 217 221 221 219 220 221 222 222 223 225 229 234 239 244 246 243 238 235 232 224 219 218 217 216
320 344 202 211 217 215 200 186 181 192 189 105 111 134 126 337 20 31 355 53 100 244 262 249 128 99 157 265 352 336 347 27 29 34 38 39 46 46 47 54 63 71 87 115 138 158 171 186 201 207 209 211 209 202 213 234 238 237 233 229 229 227 226 230 231 231 230 228 228 229 228 228 229 233 239 246 251 251 246 241 234 223 217 215 214 212
319 241 262 260 231 201 152 185 201 181 170 125 106 99 119 214 29 40 296 47 150 242 255 223 113 78 155 256 352 332 2 32 34 32 35 50 58 56 52 51 54 60 67 83 114 146 166 185 196 208 219 226 234 236 238 236 234 238 239 239 240 239 238 239 241 243 241 238 237 237 236 235 234 237 242 247 252 252 252 249 236 224 217 214 211 209
317 290 293 309 254 199 152 152 164 157 171 167 152 125 131 127 101 205 264 127 204 249 245 227 99 72 230 264 3 6 17 36 49 45 42 58 67 67 63 58 55 54 56 61 75 107 151 186 198 217 235 245 254 263 260 246 244 249 247 243 244 246 248 250 253 254 253 251 246 243 243 241 238 238 238 243 248 243 241 243 235 227 222 214 209 208
184 286 254 195 231 185 163 180 180 157 154 176 166 133 140 148 140 194 206 163 199 235 276 294 57 145 188 182 41 53 44 50 64 64 62 64 66 69 65 61 58 56 54 56 56 57 67 162 230 259 271 273 273 286 291 263 254 260 259 253 253 255 256 257 260 262 264 265 260 259 263 254 242 237 232 236 240 237 236 237 230 226 224 216 209 210
159 238 247 236 237 170 174 196 163 131 131 216 141 106 137 177 144 133 182 172 174 160 1 354 55 28 154 121 86 92 87 71 73 72 68 62 59 62 60 57 58 57 55 55 53 51 47 37 359 325 318 309 299 298 298 283 267 267 271 273 274 275 272 268 267 264 265 273 275 270 269 260 246 242 238 235 233 232 235 236 228 220 215 211 210 212
136 253 275 282 271 225 194 185 160 153 166 155 116 147 195 168 125 116 192 212 112 128 219 271 123 86 119 126 116 121 110 95 89 74 63 58 55 58 56 56 59 59 58 58 57 59 57 52 40 12 347 333 329 322 311 299 284 278 282 284 286 287 282 271 268 267 267 275 282 270 259 254 248 244 240 234 230 231 231 226 223 217 208 206 209 212
143 259 286 226 241 257 204 162 120 131 139 119 166 189 154 87 92 108 148 8 55 134 243 322 136 165 178 159 156 141 121 113 107 79 64 58 56 59 57 57 62 62 61 60 58 61 59 54 48 35 19 1 345 335 322 307 297 291 290 291 293 295 290 274 264 267 273 276 272 264 256 251 245 240 238 235 231 230 226 216 214 212 205 203 206 206
129 270 289 248 224 274 102 106 55 18 72 121 166 161 113 117 167 98 135 136 107 156 250 357 54 183 177 173 168 151 133 121 104 72 63 58 54 54 48 47 56 61 60 58 56 56 55 53 50 44 34 25 17 9 354 325 305 298 297 301 304 304 301 286 270 266 273 276 269 263 255 250 248 243 239 237 232 225 220 214 209 206 201 199 201 202
126 117 284 275 257 305 37 76 172 268 5 64 100 93 86 137 160 159 148 151 149 170 187 49 6 238 211 215 178 150 136 125 112 89 71 62 53 46 40 39 46 53 54 53 54 54 54 53 51 50 47 41 39 32 18 356 332 317 309 306 304 302 299 292 282 276 276 274 269 266 256 249 250 247 241 236 229 221 216 211 206 202 200 197 199 202
99 124 240 288 325 42 94 233 191 184 175 112 101 119 220 97 120 151 119 115 135 151 160 132 232 261 247 247 191 150 134 126 123 114 85 66 58 48 42 42 43 46 48 46 45 45 46 47 45 43 41 34 27 22 12 356 342 331 325 316 306 301 295 286 281 280 280 272 263 263 261 257 253 248 244 238 226 218 213 206 201 202 203 198 199 202
145 144 184 283 353 50 250 278 215 173 154 146 149 164 171 138 120 131 206 287 109 117 157 156 178 266 264 195 119 117 115 111 110 112 100 74 62 52 46 44 42 42 41 37 33 31 27 23 16 10 4 358 352 351 350 344 337 330 329 328 320 312 302 290 280 274 271 264 255 254 257 256 251 244 244 239 226 216 209 203 199 202 202 197 202 204
145 111 134 243 322 236 266 309 8 125 103 95 104 99 116 129 126 133 184 244 87 91 123 118 108 275 272 108 94 86 90 89 87 96 101 73 57 49 43 42 43 41 38 33 29 26 20 11 358 343 334 330 328 329 329 328 329 329 328 327 322 312 300 289 281 273 268 260 253 251 251 249 245 242 241 233 223 214 206 201 198 199 197 193 200 204
108 100 115 234 322 306 289 329 16 62 79 80 45 34 73 132 135 141 169 177 131 141 130 81 75 262 262 97 98 92 85 80 72 68 70 55 45 42 36 36 39 38 37 37 35 31 25 17 4 348 341 339 338 334 331 328 327 330 333 327 315 300 288 278 272 271 269 261 254 250 247 245 241 239 233 221 216 212 205 200 197 195 194 193 195 199
157 114 108 114 61 348 330 345 357 10 46 71 20 354 357 58 103 118 126 83 105 176 146 117 164 233 140 103 98 93 88 83 72 57 46 37 32 31 30 31 32 32 31 34 38 35 28 22 16 13 7 1 357 351 344 339 333 332 335 332 323 312 300 288 275 267 264 261 255 250 248 246 242 241 234 217 212 210 203 198 195 192 192 194 193 194
126 99 118 129 146 172 184 227 244 287 50 44 14 1 4 40 105 131 124 92 134 190 113 123 174 165 129 122 107 99 98 91 78 60 44 33 26 23 26 29 27 28 29 31 36 38 35 31 27 22 16 8 2 356 350 346 339 336 339 338 334 328 322 313 295 275 266 263 257 252 250 247 244 245 238 219 209 206 200 193 191 190 190 192 191 189
110 69 96 127 141 180 189 207 231 136 97 63 360 358 2 1 44 105 115 145 167 146 58 200 164 144 150 149 120 106 101 95 85 66 44 32 22 16 24 28 26 29 31 33 37 40 39 36 30 22 14 8 3 358 354 352 347 345 347 348 346 340 333 328 313 290 275 270 264 254 248 247 247 245 240 228 212 201 194 190 188 187 189 189 186 184
107 48 11 80 78 81 120 81 43 58 84 89 35 358 0 11 40 81 99 175 150 127 136 225 156 142 152 145 117 113 106 98 93 77 55 36 20 15 23 28 29 32 33 32 36 38 38 34 27 19 10 4 4 2 360 357 355 354 353 350 348 344 340 337 328 306 286 278 274 264 253 252 253 246 241 234 214 198 191 190 189 187 186 185 181 180
114 50 347 70 62 42 43 53 67 79 79 67 56 25 12 37 62 77 75 288 163 143 170 164 142 133 130 117 107 109 105 106 107 97 81 58 36 28 29 29 29 32 32 30 30 34 34 29 23 17 9 5 7 6 3 359 355 354 353 346 341 341 343 342 338 327 306 292 286 280 266 256 254 247 235 221 206 195 188 188 191 188 183 181 178 180
108 55 2 81 73 41 20 16 55 90 91 55 43 33 28 57 72 74 69 58 68 94 130 130 119 97 88 104 104 101 103 109 108 99 86 63 42 36 34 28 25 27 26 24 26 30 29 23 19 14 9 9 8 5 1 357 352 352 354 349 339 339 343 341 338 334 322 306 300 296 279 254 247 245 229 209 200 193 185 185 190 187 180 178 175 177
82 105 314 67 71 28 11 31 54 80 93 71 38 23 22 42 61 63 64 66 67 78 101 110 109 95 86 106 105 102 99 87 78 76 72 57 42 41 35 23 20 22 20 20 26 28 23 20 19 12 8 8 5 0 358 355 354 354 355 353 347 345 345 341 338 336 331 324 322 314 294 265 253 247 228 204 194 191 184 183 187 184 179 179 176 175
69 112 119 65 77 21 3 71 63 64 81 71 38 16 11 22 52 60 53 47 90 125 120 113 120 144 143 125 108 92 84 79 68 64 67 57 43 43 34 20 20 22 19 19 25 29 24 23 22 13 8 6 2 360 360 358 357 356 354 353 351 347 343 339 339 338 334 332 331 323 306 287 270 249 222 201 193 191 186 183 185 183 182 184 180 176
100 133 137 98 99 146 221 53 26 29 66 59 11 350 346 27 79 69 43 28 49 129 133 133 144 135 134 134 121 95 81 76 66 62 65 58 49 46 36 28 28 28 25 21 21 27 28 26 23 17 13 11 8 8 6 1 356 354 353 353 347 341 339 337 337 335 330 327 327 322 310 292 269 238 213 198 192 188 182 181 184 186 187 187 181 177
93 120 130 118 113 140 230 348 21 46 144 247 315 329 336 95 93 80 55 38 47 85 107 105 112 118 125 132 125 109 95 85 79 79 77 76 72 64 55 47 40 37 36 29 24 28 29 27 25 25 23 20 16 14 8 360 353 350 352 350 343 340 343 341 336 332 327 324 322 312 292 261 237 222 207 194 188 185 182 182 184 188 191 187 178 175
96 95 97 74 99 127 110 37 69 199 219 231 331 12 60 90 94 87 71 54 67 91 103 105 112 119 116 112 112 110 107 104 98 88 83 91 99 91 78 65 52 48 47 41 35 33 30 26 24 25 26 24 20 13 5 358 353 351 351 349 344 345 352 351 344 338 332 330 329 310 267 227 213 206 198 191 187 185 183 183 186 190 189 180 175 177
122 116 101 68 80 119 116 98 144 213 228 68 350 10 51 67 82 82 67 51 65 95 107 109 113 117 116 116 119 118 114 106 91 73 66 79 91 88 80 67 57 53 51 48 45 41 36 31 25 23 24 24 18 11 6 1 358 359 359 354 349 350 357 0 2 358 346 341 343 330 230 204 197 189 185 184 184 183 182 181 181 185 181 175 175 178
122 126 108 74 64 121 118 101 97 144 219 217 16 44 61 25 333 41 76 75 83 118 122 122 125 130 128 128 132 128 118 101 81 59 46 59 74 78 77 69 59 51 47 49 49 48 47 39 29 24 24 22 18 16 14 9 6 9 11 8 5 3 4 11 19 22 16 3 356 355 177 174 165 156 160 165 166 170 176 176 174 177 179 178 175 171
92 126 139 120 82 106 110 106 119 179 213 178 140 142 130 113 281 279 103 102 128 149 142 136 138 142 141 142 147 144 130 97 62 28 23 49 73 81 82 79 73 60 49 49 52 54 52 45 37 31 24 19 22 25 23 15 11 15 20 22 22 15 12 19 26 28 29 27 24 33 146 160 155 145 146 152 153 155 161 166 171 175 177 174 168 162
57 62 101 103 98 127 125 134 175 199 202 135 142 199 302 310 279 267 94 107 153 157 152 143 142 152 155 157 163 168 172 210 206 279 344 71 92 92 92 90 87 77 62 54 54 56 56 52 47 37 23 20 25 29 28 18 10 15 26 30 28 23 22 26 30 31 33 34 37 51 120 155 162 169 172 166 162 159 161 168 177 180 175 168 162 160
40 28 59 97 128 141 123 118 192 216 168 116 224 277 310 317 285 162 157 231 158 157 160 153 151 161 166 166 172 184 273 243 173 167 167 131 107 98 95 89 85 80 74 68 66 67 65 61 54 43 36 35 33 31 31 19 6 16 33 35 31 33 34 31 29 37 47 48 48 52 75 136 161 177 183 174 166 165 167 170 172 173 169 163 160 162
35 26 62 113 125 118 110 114 271 279 178 162 279 296 316 348 146 171 221 173 143 149 161 161 160 167 174 181 187 164 81 141 149 143 143 131 115 108 98 89 86 83 79 76 75 74 72 67 60 54 50 47 40 36 36 28 19 29 38 36 35 39 39 33 31 40 57 68 71 67 66 88 122 139 150 153 151 151 151 152 155 158 156 152 150 153
65 29 41 90 117 124 114 112 56 288 208 167 305 305 337 72 190 166 132 139 141 143 153 160 164 171 176 178 167 137 122 129 136 135 135 131 122 116 105 97 94 89 85 83 79 75 73 69 63 59 55 51 45 42 42 37 35 39 40 39 41 42 39 36 36 42 57 72 81 81 78 80 90 104 118 125 128 132 133 135 142 148 150 149 147 146
122 92 69 76 111 117 98 90 115 212 247 5 347 314 358 33 157 130 118 126 138 139 141 146 154 166 168 152 138 133 131 131 134 136 136 132 125 120 114 110 106 99 94 88 78 71 68 66 62 58 55 51 48 46 45 43 44 46 45 43 44 41 36 37 41 45 56 67 73 78 82 89 94 100 112 119 120 122 123 127 137 147 158 169 167 158
291 153 148 181 156 129 144 157 193 250 291 326 351 121 108 123 139 134 123 118 125 134 137 135 136 149 155 143 134 134 134 133 136 139 136 130 124 119 116 114 112 109 103 94 84 75 70 66 64 61 57 51 48 46 46 47 50 53 54 52 47 40 35 33 35 46 58 64 67 68 70 79 93 104 118 127 131 143 167 174 176 189 205 208 208 204
73 102 103 99 84 94 111 143 230 283 25 84 104 109 113 124 136 139 131 122 123 132 137 134 133 140 144 141 138 138 137 137 139 140 137 132 126 120 116 111 107 105 101 96 90 83 77 75 72 67 62 57 53 50 49 49 50 53 55 54 50 46 45 39 30 33 44 53 60 62 62 68 80 91 102 116 138 168 189 203 215 224 220 211 209 211
131 114 96 97 118 100 67 53 57 76 82 92 103 110 117 126 134 137 133 127 129 136 137 135 136 139 141 142 140 139 138 140 140 137 134 130 125 121 117 113 108 101 94 90 86 81 77 77 75 69 65 60 56 54 54 53 52 51 50 48 45 45 49 50 48 45 41 39 44 50 52 57 65 75 83 92 105 121 134 155 171 175 174 170 163 163
185 126 98 102 153 133 67 43 59 82 90 98 104 108 115 121 127 130 128 126 129 133 132 130 132 136 139 141 139 136 137 137 133 130 126 123 121 119 115 114 111 104 97 91 87 82 77 74 72 69 67 63 57 55 54 53 53 53 50 45 42 37 34 38 48 58 59 52 45 42 41 44 50 60 72 79 86 95 101 108 119 123 121 116 115 119
133 114 100 89 92 91 97 106 94 87 92 102 107 111 116 119 120 120 119 122 125 126 126 126 128 130 132 131 127 126 128 128 126 124 123 120 118 115 113 112 110 106 101 95 87 80 73 70 69 67 68 68 64 60 58 54 51 49 47 46 43 39 35 34 36 49 61 64 62 59 54 48 45 49 57 63 69 82 91 95 103 112 110 106 104 105
132 112 104 111 105 89 101 118 107 89 82 92 105 113 118 120 121 120 119 122 124 123 124 123 122 122 123 122 121 120 121 122 121 119 118 117 115 113 111 109 108 106 101 91 78 68 64 64 64 62 64 65 62 62 62 60 55 50 47 46 43 38 37 38 39 42 48 52 58 64 64 59 53 48 50 55 58 65 79 87 93 105 115 120 124 124
109 115 118 119 124 122 131 141 130 107 90 102 113 117 119 123 123 122 123 125 124 125 126 125 122 122 120 118 118 118 118 119 117 114 113 112 110 110 108 106 105 103 96 86 77 68 66 69 69 64 62 61 58 57 56 55 53 50 45 42 40 36 34 35 39 43 43 42 42 45 51 55 55 50 48 52 55 58 70 85 93 99 112 127 139 146
120 154 156 119 110 128 138 139 131 120 116 122 124 123 125 127 126 125 126 127 126 126 126 123 124 126 126 125 124 121 119 119 118 116 115 112 110 109 108 106 103 98 94 90 81 70 64 70 77 73 67 63 60 56 53 50 47 44 41 39 38 36 34 34 36 38 38 38 39 38 38 41 45 45 46 49 54 57 62 78 99 114 123 132 142 153